sat.trackr.live / text

‹ back to catalog

STARLINK-2692

NORAD 48434 · 2021-040G

PAYLOAD ACTIVE UNKNOWN

§ Identity

Operator
Country
US
Launch date
2021-05-09
Launch site
AFETR
Launch vehicle
Mass (kg)
RCS (m²)

Purposes: comms

External: N2YO · Heavens-Above · Gunter

§ Orbital elements

Epoch: 2026-09-20T04:42:25.127424Z

Period
94.01 min
Inclination
53.1586°
Eccentricity
0.0001411
Mean motion
15.31703411 rev/d
Perigee alt
469.8 km
Apogee alt
471.7 km
Semi-major
6,848.9 km
B*
1.1103e-5
RAAN
327.5764°
Arg perigee
97.1518°
Mean anomaly
262.9644°
Rev number
29,684

§ Raw data

STARLINK-26921 48434U 21040G   26263.19612416 -.00000021  00000+0  11103-4 0  99922 48434  53.1586 327.5764 0001411  97.1518 262.9644 15.31703411296843

JSON: /api/v1/satellites/48434 · /tle

For live sub-satellite position, see the globe view (requires WebGL).

§ Visibility from observer

Set your observer location to see the next 7 days of passes ≥ 10°. The values pass through the URL so the page stays shareable.

No JS? Fill the form by hand. The geolocation button needs JavaScript.